Location: Unspecified
(50.9333°N, 0.0000°E)
Time: 05:33:17
(UTC+00:00)

MetOp-C - Visible Passes

Search period start: 04 April 2026 00:00
Search period end: 14 April 2026 00:00
Orbit: 819 x 822 km, 98.7° (Epoch: 29 March)

Date Brightness Start Highest point End Pass type
(mag) Time Alt. Az. Time Alt. Az. Time Alt. Az.
4 Apr ? 19:16:09 10° ESE 19:20:11 22° ENE 19:24:15 10° N visible
4 Apr ? 20:56:57 29° S 20:59:47 74° WSW 21:05:10 10° NNW visible
4 Apr ? 22:38:39 10° WSW 22:40:49 12° W 22:43:00 10° WNW visible
5 Apr ? 20:35:52 25° SSE 20:39:02 79° ENE 20:44:26 10° NNW visible
5 Apr ? 22:17:14 14° WSW 22:19:47 18° W 22:23:26 10° NW visible
6 Apr ? 20:14:47 20° SE 20:18:22 56° ENE 20:23:37 10° N visible
6 Apr ? 21:56:08 18° SW 21:58:48 26° W 22:03:17 10° NW visible
7 Apr ? 19:53:43 15° SE 19:57:45 40° ENE 20:02:44 10° N visible
7 Apr ? 21:35:03 22° SSW 21:37:52 37° W 21:42:52 10° NNW visible
8 Apr ? 19:32:40 10° ESE 19:37:12 29° ENE 19:41:45 10° N visible
8 Apr ? 21:13:59 24° SSW 21:17:02 54° W 21:22:18 10° NNW visible
9 Apr ? 20:52:54 24° S 20:56:15 78° WSW 21:01:39 10° NNW visible
9 Apr ? 22:34:44 10° WSW 22:37:14 13° W 22:39:45 10° WNW visible
10 Apr ? 20:31:49 21° SSE 20:35:31 75° ENE 20:40:54 10° NNW visible
10 Apr ? 22:13:10 13° SW 22:16:12 19° W 22:20:02 10° NW visible
11 Apr ? 20:10:45 16° SE 20:14:52 53° ENE 20:20:04 10° N visible
11 Apr ? 21:52:06 17° SW 21:55:14 28° W 21:59:49 10° NW visible
12 Apr ? 19:49:40 11° SE 19:54:16 37° ENE 19:59:10 10° N visible
12 Apr ? 21:31:01 20° SSW 21:34:20 40° W 21:39:23 10° NNW visible
13 Apr ? 19:29:16 10° ESE 19:33:43 27° ENE 19:38:10 10° N visible
13 Apr ? 21:09:56 21° S 21:13:30 58° W 21:18:48 10° NNW visible
